Location: Unspecified
(48.8656°N, 0.0000°E)
Time: 12:06:49
(UTC+00:00)

Tiangong 2 - Pass Details

Date: 23 May 2019
Orbit: 376 x 389 km, 42.8° (Epoch: 20 June)

Event Time Altitude Azimuth Distance (km) Brightness Sun altitude
Rises 21:08:32 0° 250° (WSW) 2,234 5.2 -11.0°
Reaches altitude 10° 21:10:47 10° 238° (WSW) 1,382 4.0 -11.3°
Maximum altitude 21:13:27 26° 178° (S) 778 2.2 -11.5°
Enters shadow 21:14:34 21° 143° (SE) 913 2.3 -11.7°
